| time (UTC) | temp F | wind direction | speed knots | gust knots | rain 1hr in | rain 24hr in | rain mn in | humidity % | barometer mb |
| 20260509090505 | 69 | 149 | 5.2 | 8.7 | 0.00 | 0.00 | 0.00 | 90 | 1006.8 |
| 20260509085959 | 69 | 117 | 3.5 | 8.7 | 0.00 | 0.00 | 0.00 | 90 | 1006.9 |
| 20260509085500 | 69 | 144 | 3.5 | 7.8 | 0.00 | 0.00 | 0.00 | 90 | 1007.1 |
| 20260509085306 | 69 | 149 | 4.3 | 7.8 | 0.00 | 0.00 | 0.00 | 90 | 1006.3 |
| 20260509084501 | 69 | 129 | 4.3 | 9.6 | 0.00 | 0.00 | 0.00 | 90 | 1007.4 |
| 20260509084303 | 69 | 142 | 6.1 | 8.7 | 0.00 | 0.00 | 0.00 | 90 | 1006.7 |
| 20260509084000 | 69 | 145 | 4.3 | 9.6 | 0.00 | 0.00 | 0.00 | 90 | 1007.4 |
| 20260509083504 | 69 | 186 | 4.3 | 10.4 | 0.00 | 0.00 | 0.00 | 90 | 1007.6 |
| 20260509083304 | 69 | 157 | 6.1 | 10.4 | 0.00 | 0.00 | 0.00 | 90 | 1007.0 |
| 20260509082803 | 69 | 156 | 6.1 | 13.0 | 0.00 | 0.00 | 0.00 | 90 | 1007.1 |
| 20260509082459 | 69 | 150 | 3.5 | 6.1 | 0.00 | 0.00 | 0.00 | 90 | 1008.0 |
| 20260509082306 | 69 | 166 | 6.1 | 8.7 | 0.00 | 0.00 | 0.00 | 90 | 1007.5 |
| 20260509081804 | 69 | 180 | 4.3 | 7.0 | 0.00 | 0.00 | 0.00 | 90 | 1007.7 |
| 20260509081501 | 68 | 150 | 3.5 | 6.1 | 0.00 | 0.00 | 0.00 | 90 | 1008.4 |
| 20260509081304 | 69 | 143 | 5.2 | 7.8 | 0.00 | 0.00 | 0.00 | 90 | 1008.0 |
| 20260509081000 | 68 | 157 | 2.6 | 6.1 | 0.00 | 0.00 | 0.00 | 90 | 1008.9 |
| 20260509080501 | 68 | 130 | 2.6 | 6.1 | 0.00 | 0.00 | 0.00 | 90 | 1009.0 |
| 20260509080004 | 68 | 126 | 2.6 | 5.2 | 0.00 | 0.00 | 0.00 | 90 | 1009.3 |
| 20260509075458 | 68 | 158 | 1.7 | 4.3 | 0.00 | 0.00 | 0.00 | 90 | 1009.4 |
| 20260509075001 | 68 | 126 | 1.7 | 2.6 | 0.00 | 0.00 | 0.00 | 90 | 1009.4 |
| 20260509074803 | 69 | 117 | 2.6 | 4.3 | 0.00 | 0.00 | 0.00 | 90 | 1008.8 |
| 20260509074501 | 68 | 115 | 1.7 | 2.6 | 0.00 | 0.00 | 0.00 | 90 | 1009.6 |
| 20260509074303 | 69 | 112 | 1.7 | 4.3 | 0.00 | 0.00 | 0.00 | 89 | 1009.2 |
| 20260509074000 | 68 | 115 | 0.9 | 2.6 | 0.00 | 0.00 | 0.00 | 89 | 1009.8 |
| 20260509073501 | 68 | 140 | 0.9 | 1.7 | 0.00 | 0.00 | 0.00 | 89 | 1010.0 |
| 20260509072505 | 69 | 241 | 0.9 | 1.7 | 0.00 | 0.00 | 0.00 | 88 | 1010.1 |
| 20260509072002 | 69 | 241 | 0.0 | 0.0 | 0.00 | 0.00 | 0.00 | 88 | 1010.1 |
| 20260509071501 | 69 | 241 | 0.0 | 0.0 | 0.00 | 0.00 | 0.00 | 88 | 1010.2 |
| 20260509071000 | 69 | 241 | 0.0 | 0.0 | 0.00 | 0.00 | 0.00 | 88 | 1010.3 |
| 20260509070500 | 69 | 241 | 0.0 | 2.6 | 0.00 | 0.00 | 0.00 | 88 | 1010.1 |
| 20260509070304 | 69 | 241 | 0.0 | 0.9 | 0.00 | 0.00 | 0.00 | 87 | 1009.3 |
| 20260509070006 | 69 | 241 | 0.0 | 2.6 | 0.00 | 0.00 | 0.00 | 87 | 1010.0 |
| 20260509065459 | 69 | 213 | 0.9 | 3.5 | 0.00 | 0.00 | 0.00 | 87 | 1009.8 |
| 20260509065306 | 70 | 213 | 0.9 | 2.6 | 0.00 | 0.00 | 0.00 | 87 | 1008.8 |
| 20260509064958 | 69 | 213 | 1.7 | 4.3 | 0.00 | 0.00 | 0.00 | 87 | 1009.6 |
| 20260509064502 | 69 | 194 | 2.6 | 4.3 | 0.00 | 0.00 | 0.00 | 87 | 1009.4 |
| 20260509064002 | 69 | 227 | 1.7 | 5.2 | 0.00 | 0.00 | 0.00 | 87 | 1009.4 |
| 20260509063804 | 69 | 201 | 2.6 | 4.3 | 0.00 | 0.00 | 0.00 | 88 | 1008.9 |
| 20260509063503 | 69 | 202 | 1.7 | 3.5 | 0.00 | 0.00 | 0.00 | 88 | 1009.5 |
| 20260509063000 | 69 | 215 | 1.7 | 2.6 | 0.00 | 0.00 | 0.00 | 88 | 1009.7 |
| 20260509062804 | 69 | 197 | 1.7 | 2.6 | 0.00 | 0.00 | 0.00 | 88 | 1008.8 |
| 20260509062500 | 68 | 199 | 1.7 | 4.3 | 0.00 | 0.00 | 0.00 | 88 | 1009.7 |
| 20260509062003 | 68 | 207 | 2.6 | 4.3 | 0.00 | 0.00 | 0.00 | 87 | 1009.6 |
| 20260509061804 | 69 | 184 | 3.5 | 5.2 | 0.00 | 0.00 | 0.00 | 87 | 1008.6 |
| 20260509061457 | 69 | 192 | 1.7 | 4.3 | 0.00 | 0.00 | 0.00 | 87 | 1009.5 |
| 20260509061003 | 69 | 179 | 0.9 | 1.7 | 0.00 | 0.00 | 0.00 | 87 | 1009.8 |
| 20260509060502 | 69 | 182 | 0.0 | 1.7 | 0.00 | 0.00 | 0.00 | 86 | 1010.1 |
| 20260509060002 | 69 | 182 | 0.9 | 2.6 | 0.00 | 0.00 | 0.00 | 86 | 1010.0 |
| 20260509055803 | 70 | 182 | 0.9 | 1.7 | 0.00 | 0.00 | 0.00 | 86 | 1009.4 |
| 20260509054804 | 70 | 182 | 0.9 | 1.7 | 0.00 | 0.00 | 0.00 | 86 | 1009.9 |
| 20260509054502 | 69 | 182 | 0.9 | 5.2 | 0.00 | 0.00 | 0.00 | 85 | 1010.5 |
| 20260509054000 | 70 | 182 | 1.7 | 5.2 | 0.00 | 0.00 | 0.00 | 85 | 1010.1 |
| 20260509053804 | 70 | 177 | 4.3 | 5.2 | 0.00 | 0.00 | 0.00 | 85 | 1009.2 |
| 20260509053505 | 70 | 178 | 0.9 | 3.5 | 0.00 | 0.00 | 0.00 | 85 | 1010.1 |
| 20260509053304 | 70 | 199 | 1.7 | 2.6 | 0.00 | 0.00 | 0.00 | 85 | 1009.7 |
| 20260509053002 | 70 | 241 | 0.9 | 1.7 | 0.00 | 0.00 | 0.00 | 85 | 1010.5 |
| 20260509052459 | 70 | 10 | 1.7 | 5.2 | 0.00 | 0.00 | 0.00 | 85 | 1010.9 |
| 20260509052001 | 70 | 340 | 2.6 | 5.2 | 0.00 | 0.00 | 0.00 | 85 | 1010.9 |
| 20260509051502 | 70 | 360 | 1.7 | 5.2 | 0.00 | 0.00 | 0.00 | 84 | 1010.8 |
| 20260509051005 | 70 | 360 | 0.9 | 3.5 | 0.00 | 0.00 | 0.00 | 84 | 1010.4 |
| 20260509050501 | 70 | 202 | 1.7 | 5.2 | 0.00 | 0.00 | 0.00 | 84 | 1009.9 |
| 20260509050304 | 71 | 210 | 2.6 | 4.3 | 0.00 | 0.00 | 0.00 | 84 | 1008.6 |
| 20260509050009 | 70 | 201 | 1.7 | 5.2 | 0.00 | 0.00 | 0.00 | 84 | 1009.5 |
| 20260509045504 | 70 | 203 | 0.9 | 2.6 | 0.00 | 0.00 | 0.00 | 84 | 1009.6 |
| 20260509045306 | 71 | 202 | 0.9 | 2.6 | 0.00 | 0.00 | 0.00 | 83 | 1009.0 |
| 20260509044804 | 71 | 200 | 0.9 | 4.3 | 0.00 | 0.00 | 0.00 | 83 | 1008.5 |
| 20260509044501 | 70 | 200 | 2.6 | 6.1 | 0.00 | 0.00 | 0.00 | 83 | 1009.4 |
| 20260509044006 | 70 | 204 | 3.5 | 6.1 | 0.00 | 0.00 | 0.00 | 83 | 1009.2 |
| 20260509043804 | 71 | 220 | 5.2 | 7.8 | 0.00 | 0.00 | 0.00 | 83 | 1008.4 |
| 20260509043501 | 70 | 206 | 3.5 | 6.1 | 0.00 | 0.00 | 0.00 | 83 | 1009.1 |
| 20260509043304 | 71 | 204 | 4.3 | 7.0 | 0.00 | 0.00 | 0.00 | 83 | 1008.4 |
| 20260509043001 | 70 | 188 | 4.3 | 7.0 | 0.00 | 0.00 | 0.00 | 83 | 1009.3 |
| 20260509042505 | 70 | 209 | 4.3 | 7.0 | 0.00 | 0.00 | 0.00 | 83 | 1009.2 |
| 20260509042306 | 71 | 190 | 5.2 | 8.7 | 0.00 | 0.00 | 0.00 | 83 | 1008.2 |
| 20260509042001 | 70 | 169 | 3.5 | 7.0 | 0.00 | 0.00 | 0.00 | 83 | 1009.0 |
| 20260509041804 | 71 | 177 | 5.2 | 8.7 | 0.00 | 0.00 | 0.00 | 83 | 1009.2 |
| 20260509041501 | 70 | 186 | 1.7 | 5.2 | 0.00 | 0.00 | 0.00 | 83 | 1009.7 |
| 20260509041304 | 71 | 161 | 1.7 | 5.2 | 0.00 | 0.00 | 0.00 | 82 | 1009.2 |
| 20260509041004 | 71 | 150 | 0.9 | 3.5 | 0.00 | 0.00 | 0.00 | 82 | 1010.0 |
| 20260509040804 | 71 | 140 | 1.7 | 4.3 | 0.00 | 0.00 | 0.00 | 82 | 1009.3 |
| 20260509040501 | 71 | 91 | 0.0 | 1.7 | 0.00 | 0.00 | 0.00 | 82 | 1010.3 |
| 20260509040008 | 71 | 22 | 0.0 | 0.0 | 0.00 | 0.00 | 0.00 | 82 | 1010.5 |
| 20260509035804 | 71 | 22 | 0.0 | 0.0 | 0.00 | 0.00 | 0.00 | 82 | 1009.6 |
| 20260509035501 | 71 | 22 | 0.0 | 2.6 | 0.00 | 0.00 | 0.00 | 82 | 1010.5 |
| 20260509035306 | 71 | 22 | 0.0 | 0.9 | 0.00 | 0.00 | 0.00 | 82 | 1009.3 |
| 20260509035001 | 71 | 22 | 1.7 | 4.3 | 0.00 | 0.00 | 0.00 | 82 | 1010.4 |
| 20260509034803 | 71 | 22 | 1.7 | 5.2 | 0.00 | 0.00 | 0.00 | 82 | 1009.3 |
| 20260509034505 | 71 | 344 | 2.6 | 4.3 | 0.00 | 0.00 | 0.00 | 82 | 1010.4 |
| 20260509034304 | 71 | 15 | 3.5 | 7.0 | 0.00 | 0.00 | 0.00 | 83 | 1009.3 |
| 20260509034006 | 71 | 5 | 1.7 | 3.5 | 0.00 | 0.00 | 0.00 | 83 | 1010.5 |
| 20260509033504 | 71 | 18 | 0.0 | 2.6 | 0.00 | 0.00 | 0.00 | 82 | 1010.2 |
| 20260509033304 | 71 | 197 | 0.0 | 0.0 | 0.00 | 0.00 | 0.00 | 82 | 1009.0 |
| 20260509033007 | 70 | 197 | 0.0 | 0.0 | 0.00 | 0.00 | 0.00 | 82 | 1009.9 |
| 20260509032803 | 71 | 197 | 0.0 | 0.0 | 0.00 | 0.00 | 0.00 | 82 | 1008.9 |
| 20260509032505 | 71 | 197 | 0.9 | 2.6 | 0.00 | 0.00 | 0.00 | 81 | 1009.7 |
| 20260509032004 | 71 | 197 | 1.7 | 2.6 | 0.00 | 0.00 | 0.00 | 81 | 1009.6 |
| 20260509031804 | 71 | 198 | 1.7 | 2.6 | 0.00 | 0.00 | 0.00 | 81 | 1008.7 |
| 20260509031511 | 71 | 180 | 0.9 | 2.6 | 0.00 | 0.00 | 0.00 | 81 | 1009.5 |
| 20260509031006 | 71 | 180 | 0.0 | 1.7 | 0.00 | 0.00 | 0.00 | 81 | 1009.5 |
| 20260509030501 | 70 | 180 | 0.0 | 0.0 | 0.00 | 0.00 | 0.00 | 81 | 1009.6 |
| 20260509030005 | 70 | 180 | 0.0 | 0.0 | 0.00 | 0.00 | 0.00 | 82 | 1009.6 |
| 20260509025501 | 70 | 180 | 0.0 | 0.0 | 0.00 | 0.00 | 0.00 | 81 | 1009.4 |
| 20260509025306 | 71 | 180 | 0.0 | 0.0 | 0.00 | 0.00 | 0.00 | 81 | 1008.0 |
| 20260509025005 | 70 | 180 | 0.0 | 2.6 | 0.00 | 0.00 | 0.00 | 81 | 1009.4 |
| 20260509024505 | 71 | 180 | 1.7 | 3.5 | 0.00 | 0.00 | 0.00 | 81 | 1009.3 |
| 20260509024304 | 71 | 169 | 1.7 | 4.3 | 0.00 | 0.00 | 0.00 | 81 | 1008.0 |
| 20260509024004 | 71 | 173 | 1.7 | 5.2 | 0.00 | 0.00 | 0.00 | 81 | 1009.0 |
| 20260509023503 | 71 | 175 | 1.7 | 5.2 | 0.00 | 0.00 | 0.00 | 81 | 1008.8 |
| 20260509023005 | 71 | 175 | 0.9 | 2.6 | 0.00 | 0.00 | 0.00 | 80 | 1008.8 |
| 20260509022501 | 71 | 138 | 0.9 | 1.7 | 0.00 | 0.00 | 0.00 | 80 | 1008.8 |
| 20260509022306 | 71 | 138 | 0.9 | 1.7 | 0.00 | 0.00 | 0.00 | 80 | 1007.9 |
| 20260509022003 | 71 | 138 | 0.9 | 2.6 | 0.00 | 0.00 | 0.00 | 80 | 1008.6 |
| 20260509021505 | 71 | 138 | 1.7 | 3.5 | 0.00 | 0.00 | 0.00 | 80 | 1008.7 |
| 20260509021303 | 72 | 153 | 1.7 | 4.3 | 0.00 | 0.00 | 0.00 | 80 | 1007.9 |
| 20260509021001 | 71 | 157 | 1.7 | 3.5 | 0.00 | 0.00 | 0.00 | 79 | 1008.6 |
| 20260509020504 | 71 | 178 | 1.7 | 4.3 | 0.00 | 0.00 | 0.00 | 79 | 1008.6 |
| 20260509020006 | 71 | 162 | 1.7 | 3.5 | 0.00 | 0.00 | 0.00 | 79 | 1008.7 |
| 20260509015459 | 71 | 182 | 1.7 | 3.5 | 0.00 | 0.00 | 0.00 | 79 | 1008.8 |
| 20260509015001 | 71 | 197 | 1.7 | 3.5 | 0.00 | 0.00 | 0.00 | 79 | 1008.5 |
| 20260509014803 | 72 | 186 | 1.7 | 4.3 | 0.00 | 0.00 | 0.00 | 79 | 1007.5 |
| 20260509014505 | 71 | 169 | 1.7 | 2.6 | 0.00 | 0.00 | 0.00 | 79 | 1008.6 |
| 20260509014003 | 71 | 194 | 1.7 | 2.6 | 0.00 | 0.00 | 0.00 | 79 | 1008.5 |
| 20260509013501 | 71 | 198 | 1.7 | 2.6 | 0.00 | 0.00 | 0.00 | 78 | 1008.4 |
| 20260509013001 | 71 | 195 | 0.9 | 2.6 | 0.00 | 0.00 | 0.00 | 78 | 1008.3 |
| 20260509012306 | 72 | 191 | 0.9 | 1.7 | 0.00 | 0.00 | 0.00 | 78 | 1007.5 |
| 20260509012006 | 71 | 191 | 0.9 | 2.6 | 0.00 | 0.00 | 0.00 | 78 | 1008.2 |
| 20260509011804 | 72 | 191 | 0.0 | 1.7 | 0.00 | 0.00 | 0.00 | 78 | 1007.4 |
| 20260509011501 | 71 | 191 | 0.9 | 2.6 | 0.00 | 0.00 | 0.00 | 78 | 1008.2 |
| 20260509011000 | 71 | 191 | 0.0 | 1.7 | 0.00 | 0.00 | 0.00 | 78 | 1008.1 |
| 20260509010501 | 71 | 191 | 0.9 | 2.6 | 0.00 | 0.00 | 0.00 | 78 | 1008.0 |
| 20260509010304 | 72 | 191 | 0.0 | 1.7 | 0.00 | 0.00 | 0.00 | 78 | 1007.2 |
| 20260509005804 | 72 | 185 | 0.9 | 4.3 | 0.00 | 0.00 | 0.00 | 77 | 1007.2 |
| 20260509005500 | 71 | 194 | 1.7 | 4.3 | 0.00 | 0.00 | 0.00 | 77 | 1007.9 |
| 20260509005306 | 72 | 191 | 2.6 | 5.2 | 0.00 | 0.00 | 0.00 | 77 | 1007.1 |
| 20260509004503 | 71 | 184 | 0.9 | 3.5 | 0.00 | 0.00 | 0.00 | 77 | 1007.9 |
| 20260509004303 | 72 | 192 | 0.9 | 4.3 | 0.00 | 0.00 | 0.00 | 77 | 1007.0 |
| 20260509004000 | 71 | 192 | 2.6 | 7.0 | 0.00 | 0.00 | 0.00 | 76 | 1007.8 |
| 20260509003804 | 72 | 153 | 1.7 | 4.3 | 0.00 | 0.00 | 0.00 | 76 | 1007.0 |
| 20260509003503 | 72 | 158 | 2.6 | 7.0 | 0.00 | 0.00 | 0.00 | 76 | 1007.7 |
| 20260509003304 | 72 | 174 | 4.3 | 8.7 | 0.00 | 0.00 | 0.00 | 76 | 1007.1 |
| 20260509003001 | 72 | 187 | 3.5 | 6.1 | 0.00 | 0.00 | 0.00 | 75 | 1007.6 |
| 20260509002503 | 72 | 167 | 3.5 | 6.1 | 0.00 | 0.00 | 0.00 | 75 | 1007.6 |
| 20260509001804 | 73 | 167 | 5.2 | 8.7 | 0.00 | 0.00 | 0.00 | 75 | 1007.2 |
| 20260509001504 | 72 | 182 | 3.5 | 7.0 | 0.00 | 0.00 | 0.00 | 75 | 1007.7 |
| 20260509001304 | 73 | 177 | 5.2 | 7.8 | 0.00 | 0.00 | 0.00 | 75 | 1007.2 |
| 20260509001004 | 72 | 196 | 3.5 | 5.2 | 0.00 | 0.00 | 0.00 | 74 | 1007.8 |
| 20260509000505 | 72 | 188 | 3.5 | 5.2 | 0.00 | 0.00 | 0.00 | 74 | 1007.8 |
| 20260509000001 | 72 | 180 | 2.6 | 6.1 | 0.00 | 0.00 | 0.00 | 74 | 1008.0 |
| 20260508235500 | 72 | 189 | 3.5 | 5.2 | 0.00 | 0.00 | 0.00 | 74 | 1008.1 |
| 20260508235306 | 73 | 188 | 4.3 | 7.8 | 0.00 | 0.00 | 0.00 | 74 | 1007.3 |
| 20260508235007 | 72 | 163 | 3.5 | 6.1 | 0.00 | 0.00 | 0.00 | 74 | 1008.0 |
| 20260508234804 | 73 | 187 | 4.3 | 7.8 | 0.00 | 0.00 | 0.00 | 73 | 1007.3 |
| 20260508234501 | 72 | 132 | 3.5 | 5.2 | 0.00 | 0.00 | 0.00 | 73 | 1008.0 |
| 20260508233503 | 73 | 185 | 3.5 | 6.1 | 0.00 | 0.00 | 0.00 | 73 | 1008.2 |
| 20260508233003 | 73 | 173 | 2.6 | 7.0 | 0.00 | 0.00 | 0.00 | 72 | 1008.2 |
| 20260508232803 | 73 | 159 | 4.3 | 7.8 | 0.00 | 0.00 | 0.00 | 73 | 1007.4 |
| 20260508232500 | 73 | 186 | 2.6 | 6.1 | 0.00 | 0.00 | 0.00 | 74 | 1008.2 |
| 20260508232006 | 73 | 151 | 2.6 | 6.1 | 0.00 | 0.00 | 0.00 | 73 | 1008.3 |
| 20260508231803 | 74 | 173 | 4.3 | 7.0 | 0.00 | 0.00 | 0.00 | 73 | 1007.6 |
| 20260508231504 | 73 | 186 | 3.5 | 6.1 | 0.00 | 0.00 | 0.00 | 72 | 1008.3 |
| 20260508231304 | 74 | 173 | 3.5 | 8.7 | 0.00 | 0.00 | 0.00 | 72 | 1007.5 |
| 20260508231006 | 73 | 175 | 4.3 | 7.8 | 0.00 | 0.00 | 0.00 | 71 | 1008.2 |
| 20260508230804 | 74 | 192 | 6.1 | 7.8 | 0.00 | 0.00 | 0.00 | 72 | 1007.6 |
| 20260508230506 | 73 | 180 | 5.2 | 8.7 | 0.00 | 0.00 | 0.00 | 72 | 1008.3 |
| 20260508230003 | 73 | 202 | 5.2 | 8.7 | 0.00 | 0.00 | 0.00 | 71 | 1008.4 |
| 20260508225804 | 74 | 203 | 7.8 | 12.2 | 0.00 | 0.00 | 0.00 | 71 | 1007.6 |
| 20260508225502 | 74 | 217 | 5.2 | 9.6 | 0.00 | 0.00 | 0.00 | 71 | 1008.3 |
| 20260508225306 | 74 | 197 | 6.1 | 10.4 | 0.00 | 0.00 | 0.00 | 70 | 1007.6 |
| 20260508225000 | 74 | 198 | 5.2 | 8.7 | 0.00 | 0.00 | 0.00 | 70 | 1008.3 |
| 20260508224804 | 75 | 212 | 5.2 | 8.7 | 0.00 | 0.00 | 0.00 | 70 | 1007.6 |
| 20260508224500 | 74 | 202 | 5.2 | 8.7 | 0.00 | 0.00 | 0.00 | 70 | 1008.3 |
| 20260508224304 | 75 | 210 | 6.1 | 10.4 | 0.00 | 0.00 | 0.00 | 70 | 1007.5 |
| 20260508224003 | 75 | 219 | 5.2 | 8.7 | 0.00 | 0.00 | 0.00 | 70 | 1008.2 |
| 20260508223502 | 75 | 156 | 5.2 | 10.4 | 0.00 | 0.00 | 0.00 | 70 | 1008.1 |
| 20260508223303 | 75 | 188 | 6.1 | 11.3 | 0.00 | 0.00 | 0.00 | 70 | 1007.4 |
| 20260508223004 | 75 | 185 | 5.2 | 8.7 | 0.00 | 0.00 | 0.00 | 71 | 1008.2 |
| 20260508222503 | 75 | 228 | 6.1 | 9.6 | 0.00 | 0.00 | 0.00 | 70 | 1008.1 |
| 20260508222306 | 75 | 180 | 6.1 | 12.2 | 0.00 | 0.00 | 0.00 | 71 | 1007.4 |
| 20260508222004 | 74 | 157 | 6.1 | 9.6 | 0.00 | 0.00 | 0.00 | 70 | 1008.1 |
| 20260508221804 | 75 | 201 | 7.8 | 12.2 | 0.00 | 0.00 | 0.00 | 70 | 1007.5 |
| 20260508221506 | 75 | 185 | 6.1 | 9.6 | 0.00 | 0.00 | 0.00 | 70 | 1008.1 |
| 20260508221304 | 75 | 181 | 7.8 | 11.3 | 0.00 | 0.00 | 0.00 | 70 | 1007.4 |
| 20260508221002 | 75 | 171 | 6.1 | 9.6 | 0.00 | 0.00 | 0.00 | 70 | 1008.0 |
| 20260508220503 | 75 | 211 | 6.1 | 8.7 | 0.00 | 0.00 | 0.00 | 70 | 1008.0 |
| 20260508215500 | 75 | 173 | 5.2 | 9.6 | 0.00 | 0.00 | 0.00 | 70 | 1007.9 |
| 20260508215005 | 75 | 197 | 5.2 | 9.6 | 0.00 | 0.00 | 0.00 | 70 | 1008.0 |
| 20260508214004 | 76 | 221 | 4.3 | 10.4 | 0.00 | 0.00 | 0.00 | 70 | 1007.9 |
| 20260508213803 | 76 | 183 | 6.1 | 13.0 | 0.00 | 0.00 | 0.00 | 69 | 1007.1 |
| 20260508213500 | 75 | 186 | 4.3 | 7.8 | 0.00 | 0.00 | 0.00 | 70 | 1007.8 |
| 20260508212501 | 75 | 133 | 3.5 | 7.8 | 0.00 | 0.00 | 0.00 | 71 | 1008.0 |
| 20260508212003 | 74 | 117 | 3.5 | 7.8 | 0.00 | 0.00 | 0.00 | 75 | 1008.5 |
| 20260508211804 | 73 | 147 | 5.2 | 8.7 | 0.00 | 0.00 | 0.00 | 75 | 1008.1 |
| 20260508211500 | 72 | 152 | 2.6 | 5.2 | 0.00 | 0.00 | 0.00 | 76 | 1008.9 |
| 20260508211004 | 72 | 181 | 1.7 | 5.2 | 0.00 | 0.00 | 0.00 | 76 | 1008.9 |
| 20260508210804 | 73 | 157 | 2.6 | 5.2 | 0.00 | 0.00 | 0.00 | 74 | 1008.3 |
| 20260508210304 | 73 | 158 | 2.6 | 7.0 | 0.00 | 0.00 | 0.00 | 73 | 1008.8 |
| 20260508210001 | 73 | 196 | 4.3 | 8.7 | 0.00 | 0.00 | 0.00 | 72 | 1009.5 |
| 20260508205459 | 73 | 198 | 3.5 | 7.8 | 0.00 | 0.00 | 0.00 | 70 | 1009.7 |
| 20260508205306 | 73 | 198 | 5.2 | 11.3 | 0.00 | 0.00 | 0.00 | 70 | 1009.1 |
| 20260508204501 | 73 | 211 | 3.5 | 7.0 | 0.00 | 0.00 | 0.00 | 70 | 1009.9 |
| 20260508204304 | 74 | 200 | 4.3 | 8.7 | 0.00 | 0.00 | 0.00 | 69 | 1009.2 |
| 20260508204007 | 73 | 207 | 3.5 | 7.0 | 0.00 | 0.00 | 0.00 | 69 | 1010.1 |
| 20260508203804 | 74 | 214 | 4.3 | 8.7 | 0.00 | 0.00 | 0.00 | 69 | 1009.3 |
| 20260508203503 | 73 | 189 | 3.5 | 7.0 | 0.00 | 0.00 | 0.00 | 69 | 1010.3 |
| 20260508203304 | 74 | 205 | 3.5 | 7.0 | 0.00 | 0.00 | 0.00 | 69 | 1009.3 |
| 20260508203005 | 73 | 207 | 3.5 | 7.0 | 0.00 | 0.00 | 0.00 | 69 | 1010.2 |
| 20260508202804 | 74 | 218 | 4.3 | 8.7 | 0.00 | 0.00 | 0.00 | 68 | 1009.3 |
| 20260508202501 | 74 | 231 | 3.5 | 6.1 | 0.00 | 0.00 | 0.00 | 68 | 1010.3 |
| 20260508202004 | 74 | 192 | 4.3 | 7.0 | 0.00 | 0.00 | 0.00 | 68 | 1010.3 |
| 20260508201804 | 74 | 183 | 5.2 | 8.7 | 0.00 | 0.00 | 0.00 | 67 | 1009.3 |
| 20260508201501 | 74 | 217 | 4.3 | 7.0 | 0.00 | 0.00 | 0.00 | 67 | 1010.2 |
| 20260508201001 | 75 | 203 | 3.5 | 7.8 | 0.00 | 0.00 | 0.00 | 66 | 1010.3 |
| 20260508200502 | 75 | 188 | 3.5 | 7.8 | 0.00 | 0.00 | 0.00 | 67 | 1010.3 |
| 20260508200304 | 76 | 194 | 5.2 | 8.7 | 0.00 | 0.00 | 0.00 | 67 | 1009.3 |
| 20260508195959 | 76 | 153 | 4.3 | 8.7 | 0.00 | 0.00 | 0.00 | 67 | 1010.2 |
| 20260508195803 | 76 | 191 | 4.3 | 7.8 | 0.00 | 0.00 | 0.00 | 66 | 1009.3 |
| 20260508195501 | 76 | 223 | 4.3 | 8.7 | 0.00 | 0.00 | 0.00 | 65 | 1010.2 |
| 20260508194804 | 76 | 187 | 4.3 | 10.4 | 0.00 | 0.00 | 0.00 | 66 | 1009.4 |
| 20260508194500 | 76 | 197 | 5.2 | 7.8 | 0.00 | 0.00 | 0.00 | 66 | 1010.4 |
| 20260508194304 | 76 | 161 | 5.2 | 10.4 | 0.00 | 0.00 | 0.00 | 65 | 1009.4 |
| 20260508193503 | 76 | 138 | 5.2 | 10.4 | 0.00 | 0.00 | 0.00 | 64 | 1010.3 |
| 20260508193003 | 77 | 181 | 5.2 | 10.4 | 0.00 | 0.00 | 0.00 | 67 | 1010.4 |
| 20260508192502 | 76 | 172 | 5.2 | 9.6 | 0.00 | 0.00 | 0.00 | 68 | 1010.4 |
| 20260508191502 | 76 | 183 | 5.2 | 8.7 | 0.00 | 0.00 | 0.00 | 66 | 1010.5 |
| 20260508191304 | 76 | 175 | 7.8 | 12.2 | 0.00 | 0.00 | 0.00 | 67 | 1009.8 |
| 20260508191002 | 76 | 163 | 5.2 | 9.6 | 0.00 | 0.00 | 0.00 | 67 | 1010.5 |
| 20260508190804 | 76 | 166 | 6.1 | 11.3 | 0.00 | 0.00 | 0.00 | 66 | 1009.8 |
| 20260508190459 | 76 | 146 | 4.3 | 9.6 | 0.00 | 0.00 | 0.00 | 68 | 1010.5 |
| 20260508185306 | 76 | 177 | 5.2 | 10.4 | 0.00 | 0.00 | 0.00 | 67 | 1010.1 |
| 20260508185004 | 76 | 132 | 4.3 | 9.6 | 0.00 | 0.00 | 0.00 | 69 | 1010.7 |
| 20260508184303 | 76 | 150 | 6.1 | 8.7 | 0.00 | 0.00 | 0.00 | 69 | 1010.0 |
| 20260508183503 | 75 | 121 | 4.3 | 8.7 | 0.00 | 0.00 | 0.00 | 66 | 1010.8 |
| 20260508183303 | 76 | 159 | 6.1 | 8.7 | 0.00 | 0.00 | 0.00 | 67 | 1010.4 |
| 20260508183008 | 75 | 202 | 3.5 | 7.0 | 0.00 | 0.00 | 0.00 | 65 | 1011.0 |
| 20260508182803 | 75 | 159 | 4.3 | 8.7 | 0.00 | 0.00 | 0.00 | 67 | 1010.4 |
| 20260508182306 | 75 | 182 | 5.2 | 8.7 | 0.00 | 0.00 | 0.00 | 65 | 1010.4 |
| 20260508182000 | 75 | 154 | 3.5 | 7.8 | 0.00 | 0.00 | 0.00 | 66 | 1011.1 |
| 20260508181804 | 75 | 134 | 4.3 | 8.7 | 0.00 | 0.00 | 0.00 | 67 | 1010.4 |
| 20260508181003 | 75 | 144 | 4.3 | 8.7 | 0.00 | 0.00 | 0.00 | 64 | 1011.4 |
| 20260508180304 | 75 | 175 | 6.1 | 11.3 | 0.00 | 0.00 | 0.00 | 65 | 1010.8 |
| 20260508180003 | 74 | 147 | 5.2 | 7.8 | 0.00 | 0.00 | 0.00 | 64 | 1011.6 |
| 20260508175804 | 75 | 216 | 7.0 | 10.4 | 0.00 | 0.00 | 0.00 | 62 | 1010.8 |
| 20260508175500 | 74 | 191 | 5.2 | 8.7 | 0.00 | 0.00 | 0.00 | 64 | 1011.7 |
| 20260508175000 | 74 | 176 | 5.2 | 8.7 | 0.00 | 0.00 | 0.00 | 63 | 1011.9 |
| 20260508174803 | 75 | 190 | 7.0 | 11.3 | 0.00 | 0.00 | 0.00 | 64 | 1011.0 |
| 20260508174503 | 75 | 198 | 4.3 | 8.7 | 0.00 | 0.00 | 0.00 | 64 | 1011.9 |
| 20260508174303 | 75 | 131 | 6.1 | 10.4 | 0.00 | 0.00 | 0.00 | 66 | 1011.0 |
| 20260508174001 | 74 | 173 | 4.3 | 8.7 | 0.00 | 0.00 | 0.00 | 67 | 1011.8 |
| 20260508173501 | 73 | 166 | 4.3 | 8.7 | 0.00 | 0.00 | 0.00 | 67 | 1011.9 |
| 20260508173303 | 74 | 167 | 6.1 | 11.3 | 0.00 | 0.00 | 0.00 | 66 | 1011.2 |
| 20260508173000 | 73 | 146 | 4.3 | 7.8 | 0.00 | 0.00 | 0.00 | 67 | 1012.0 |
| 20260508172803 | 74 | 161 | 5.2 | 10.4 | 0.00 | 0.00 | 0.00 | 66 | 1011.2 |
| 20260508172502 | 73 | 156 | 3.5 | 7.0 | 0.00 | 0.00 | 0.00 | 67 | 1012.1 |
| 20260508172004 | 73 | 227 | 4.3 | 8.7 | 0.00 | 0.00 | 0.00 | 65 | 1012.2 |
| 20260508171001 | 73 | 167 | 5.2 | 9.6 | 0.00 | 0.00 | 0.00 | 66 | 1012.3 |
| 20260508170804 | 74 | 186 | 7.0 | 12.2 | 0.00 | 0.00 | 0.00 | 68 | 1011.8 |
| 20260508170500 | 73 | 152 | 4.3 | 8.7 | 0.00 | 0.00 | 0.00 | 68 | 1012.5 |
| 20260508170304 | 73 | 161 | 6.1 | 11.3 | 0.00 | 0.00 | 0.00 | 69 | 1011.8 |
| 20260508170005 | 72 | 146 | 4.3 | 8.7 | 0.00 | 0.00 | 0.00 | 69 | 1012.6 |
| 20260508165459 | 71 | 158 | 4.3 | 7.8 | 0.00 | 0.00 | 0.00 | 69 | 1012.9 |
| 20260508165306 | 71 | 176 | 6.1 | 10.4 | 0.00 | 0.00 | 0.00 | 69 | 1012.6 |
| 20260508165005 | 71 | 153 | 4.3 | 8.7 | 0.00 | 0.00 | 0.00 | 68 | 1013.0 |
| 20260508164804 | 71 | 155 | 6.1 | 11.3 | 0.00 | 0.00 | 0.00 | 68 | 1012.6 |
| 20260508164501 | 71 | 134 | 4.3 | 8.7 | 0.00 | 0.00 | 0.00 | 70 | 1013.1 |
| 20260508164304 | 71 | 156 | 6.1 | 11.3 | 0.00 | 0.00 | 0.00 | 70 | 1012.6 |
| 20260508164003 | 70 | 143 | 4.3 | 7.8 | 0.00 | 0.00 | 0.00 | 69 | 1013.3 |
| 20260508163502 | 71 | 170 | 3.5 | 7.0 | 0.00 | 0.00 | 0.00 | 70 | 1013.4 |
| 20260508163304 | 71 | 151 | 6.1 | 10.4 | 0.00 | 0.00 | 0.00 | 70 | 1012.7 |
| 20260508163004 | 70 | 153 | 3.5 | 7.8 | 0.00 | 0.00 | 0.00 | 70 | 1013.5 |
| 20260508162504 | 70 | 182 | 3.5 | 7.8 | 0.00 | 0.00 | 0.00 | 71 | 1013.6 |
| 20260508161803 | 70 | 172 | 5.2 | 11.3 | 0.00 | 0.00 | 0.00 | 70 | 1012.8 |
| 20260508161502 | 69 | 173 | 4.3 | 8.7 | 0.00 | 0.00 | 0.00 | 70 | 1013.5 |
| 20260508161304 | 69 | 144 | 6.1 | 8.7 | 0.00 | 0.00 | 0.00 | 72 | 1012.9 |
| 20260508160804 | 70 | 168 | 5.2 | 8.7 | 0.00 | 0.00 | 0.00 | 72 | 1012.9 |
| 20260508160501 | 69 | 154 | 4.3 | 7.0 | 0.00 | 0.00 | 0.00 | 72 | 1013.6 |
| 20260508160304 | 70 | 151 | 5.2 | 8.7 | 0.00 | 0.00 | 0.00 | 72 | 1013.0 |
| 20260508160002 | 69 | 142 | 4.3 | 7.0 | 0.00 | 0.00 | 0.00 | 71 | 1013.7 |
| 20260508155804 | 69 | 154 | 5.2 | 8.7 | 0.00 | 0.00 | 0.00 | 71 | 1013.0 |
| 20260508155502 | 69 | 184 | 4.3 | 6.1 | 0.00 | 0.00 | 0.00 | 70 | 1013.8 |
| 20260508155003 | 69 | 143 | 4.3 | 7.8 | 0.00 | 0.00 | 0.00 | 71 | 1013.8 |
| 20260508154805 | 69 | 154 | 6.1 | 8.7 | 0.00 | 0.00 | 0.00 | 71 | 1013.0 |
| 20260508154502 | 69 | 155 | 3.5 | 7.8 | 0.00 | 0.00 | 0.00 | 71 | 1013.8 |
| 20260508153804 | 68 | 166 | 3.5 | 7.0 | 0.00 | 0.00 | 0.00 | 73 | 1013.1 |
| 20260508153505 | 68 | 138 | 2.6 | 6.1 | 0.00 | 0.00 | 0.00 | 72 | 1013.9 |
| 20260508153000 | 67 | 131 | 3.5 | 7.0 | 0.00 | 0.00 | 0.00 | 72 | 1013.9 |
| 20260508152804 | 67 | 162 | 5.2 | 8.7 | 0.00 | 0.00 | 0.00 | 71 | 1013.3 |
| 20260508152500 | 67 | 137 | 4.3 | 7.8 | 0.00 | 0.00 | 0.00 | 71 | 1014.0 |
| 20260508152306 | 67 | 175 | 5.2 | 10.4 | 0.00 | 0.00 | 0.00 | 72 | 1013.4 |
| 20260508152004 | 67 | 221 | 3.5 | 7.8 | 0.00 | 0.00 | 0.00 | 71 | 1014.1 |
| 20260508151459 | 67 | 190 | 3.5 | 6.1 | 0.00 | 0.00 | 0.00 | 71 | 1014.2 |
| 20260508151002 | 67 | 209 | 4.3 | 8.7 | 0.00 | 0.00 | 0.00 | 70 | 1014.1 |
| 20260508145502 | 68 | 140 | 3.5 | 7.0 | 0.00 | 0.00 | 0.00 | 71 | 1013.8 |
| 20260508145306 | 68 | 167 | 5.2 | 8.7 | 0.00 | 0.00 | 0.00 | 73 | 1013.0 |
| 20260508145007 | 67 | 167 | 2.6 | 7.0 | 0.00 | 0.00 | 0.00 | 71 | 1013.8 |
| 20260508144804 | 68 | 166 | 4.3 | 7.8 | 0.00 | 0.00 | 0.00 | 72 | 1013.2 |
| 20260508144501 | 67 | 149 | 2.6 | 6.1 | 0.00 | 0.00 | 0.00 | 72 | 1013.9 |
| 20260508144304 | 67 | 153 | 2.6 | 5.2 | 0.00 | 0.00 | 0.00 | 73 | 1013.2 |
| 20260508144002 | 67 | 153 | 2.6 | 7.0 | 0.00 | 0.00 | 0.00 | 73 | 1013.9 |
| 20260508143502 | 66 | 130 | 3.5 | 7.0 | 0.00 | 0.00 | 0.00 | 73 | 1014.0 |
| 20260508142001 | 66 | 167 | 3.5 | 7.8 | 0.00 | 0.00 | 0.00 | 73 | 1014.1 |
| 20260508141803 | 67 | 193 | 6.1 | 10.4 | 0.00 | 0.00 | 0.00 | 73 | 1013.4 |
| 20260508141502 | 67 | 182 | 3.5 | 7.0 | 0.00 | 0.00 | 0.00 | 76 | 1014.2 |
| 20260508141304 | 67 | 138 | 6.1 | 8.7 | 0.00 | 0.00 | 0.00 | 75 | 1013.4 |
| 20260508141002 | 66 | 183 | 3.5 | 6.1 | 0.00 | 0.00 | 0.00 | 76 | 1014.2 |
| 20260508140503 | 66 | 153 | 3.5 | 6.1 | 0.00 | 0.00 | 0.00 | 77 | 1014.2 |
| 20260508140006 | 66 | 144 | 2.6 | 6.1 | 0.00 | 0.00 | 0.00 | 78 | 1014.2 |
| 20260508135804 | 66 | 142 | 4.3 | 7.0 | 0.00 | 0.00 | 0.00 | 80 | 1013.4 |
| 20260508135004 | 64 | 150 | 2.6 | 5.2 | 0.00 | 0.00 | 0.00 | 80 | 1014.1 |
| 20260508134508 | 64 | 115 | 1.7 | 2.6 | 0.00 | 0.00 | 0.00 | 81 | 1014.1 |
| 20260508134304 | 64 | 130 | 1.7 | 4.3 | 0.00 | 0.00 | 0.00 | 81 | 1013.3 |
| 20260508134001 | 64 | 134 | 1.7 | 3.5 | 0.00 | 0.00 | 0.00 | 83 | 1014.2 |
| 20260508133501 | 63 | 146 | 1.7 | 3.5 | 0.00 | 0.00 | 0.00 | 83 | 1014.0 |
| 20260508133004 | 63 | 135 | 2.6 | 6.1 | 0.00 | 0.00 | 0.00 | 84 | 1014.1 |
| 20260508132803 | 64 | 152 | 4.3 | 7.8 | 0.00 | 0.00 | 0.00 | 84 | 1013.3 |
| 20260508132306 | 63 | 133 | 4.3 | 7.0 | 0.00 | 0.00 | 0.00 | 85 | 1013.4 |
| 20260508132005 | 63 | 165 | 1.7 | 4.3 | 0.00 | 0.00 | 0.00 | 85 | 1014.2 |
| 20260508131804 | 63 | 152 | 1.7 | 4.3 | 0.00 | 0.00 | 0.00 | 85 | 1013.6 |
| 20260508131000 | 62 | 114 | 0.9 | 3.5 | 0.00 | 0.00 | 0.00 | 88 | 1014.2 |
| 20260508130804 | 63 | 119 | 1.7 | 4.3 | 0.00 | 0.00 | 0.00 | 88 | 1013.6 |
| 20260508130503 | 62 | 121 | 0.9 | 2.6 | 0.00 | 0.00 | 0.00 | 89 | 1014.2 |
| 20260508130304 | 62 | 142 | 0.9 | 1.7 | 0.00 | 0.00 | 0.00 | 89 | 1013.6 |
| 20260508125804 | 62 | 170 | 1.7 | 4.3 | 0.00 | 0.00 | 0.00 | 90 | 1013.5 |
| 20260508125500 | 61 | 170 | 0.0 | 1.7 | 0.00 | 0.00 | 0.00 | 90 | 1014.2 |
| 20260508125306 | 61 | 85 | 0.0 | 0.9 | 0.00 | 0.00 | 0.00 | 90 | 1013.6 |
| 20260508125000 | 61 | 250 | 0.0 | 0.0 | 0.00 | 0.00 | 0.00 | 91 | 1014.4 |
| 20260508124459 | 61 | 250 | 0.0 | 0.9 | 0.00 | 0.00 | 0.00 | 91 | 1014.4 |
| 20260508123803 | 61 | 250 | 0.0 | 0.9 | 0.00 | 0.00 | 0.00 | 91 | 1013.8 |
| 20260508123501 | 60 | 264 | 0.0 | 1.7 | 0.00 | 0.00 | 0.00 | 91 | 1014.5 |
| 20260508123304 | 61 | 355 | 0.0 | 0.9 | 0.00 | 0.00 | 0.00 | 91 | 1013.7 |
| 20260508123000 | 60 | 355 | 0.9 | 2.6 | 0.00 | 0.00 | 0.00 | 91 | 1014.3 |
| 20260508122804 | 61 | 355 | 1.7 | 4.3 | 0.00 | 0.00 | 0.00 | 91 | 1013.8 |
| 20260508122306 | 61 | 335 | 0.0 | 0.9 | 0.00 | 0.00 | 0.00 | 91 | 1013.8 |
| 20260508121502 | 60 | 335 | 0.0 | 0.0 | 0.00 | 0.00 | 0.00 | 91 | 1014.4 |
| 20260508121303 | 60 | 134 | 0.0 | 0.0 | 0.00 | 0.00 | 0.00 | 91 | 1013.8 |
| 20260508121010 | 60 | 134 | 0.9 | 1.7 | 0.00 | 0.00 | 0.00 | 91 | 1014.5 |
| 20260508120458 | 60 | 241 | 0.9 | 2.6 | 0.00 | 0.00 | 0.00 | 91 | 1014.4 |
| 20260508120001 | 60 | 195 | 0.9 | 2.6 | 0.00 | 0.00 | 0.00 | 91 | 1014.4 |
| 20260508115804 | 60 | 166 | 0.9 | 1.7 | 0.00 | 0.00 | 0.00 | 91 | 1013.6 |
| 20260508115501 | 60 | 166 | 0.9 | 4.3 | 0.00 | 0.00 | 0.00 | 91 | 1014.3 |
| 20260508115306 | 60 | 166 | 0.9 | 1.7 | 0.00 | 0.00 | 0.00 | 91 | 1013.6 |
| 20260508115004 | 60 | 166 | 1.7 | 4.3 | 0.00 | 0.00 | 0.00 | 91 | 1014.3 |
| 20260508114500 | 60 | 197 | 1.7 | 3.5 | 0.00 | 0.00 | 0.00 | 91 | 1014.4 |
| 20260508114000 | 59 | 176 | 0.9 | 2.6 | 0.00 | 0.00 | 0.00 | 91 | 1014.4 |
| 20260508113501 | 59 | 159 | 1.7 | 2.6 | 0.00 | 0.00 | 0.00 | 90 | 1014.3 |
| 20260508113002 | 60 | 117 | 0.9 | 2.6 | 0.00 | 0.00 | 0.00 | 90 | 1014.4 |
| 20260508112804 | 60 | 117 | 1.7 | 4.3 | 0.00 | 0.00 | 0.00 | 90 | 1013.7 |
| 20260508112500 | 60 | 124 | 0.9 | 2.6 | 0.00 | 0.00 | 0.00 | 90 | 1014.4 |
| 20260508112003 | 60 | 180 | 0.9 | 2.6 | 0.00 | 0.00 | 0.00 | 90 | 1014.6 |
| 20260508111501 | 60 | 151 | 0.9 | 2.6 | 0.00 | 0.00 | 0.00 | 90 | 1014.5 |
| 20260508111304 | 61 | 168 | 1.7 | 4.3 | 0.00 | 0.00 | 0.00 | 90 | 1013.9 |
| 20260508111002 | 60 | 182 | 0.9 | 1.7 | 0.00 | 0.00 | 0.00 | 90 | 1014.6 |
| 20260508110803 | 61 | 182 | 0.9 | 1.7 | 0.00 | 0.00 | 0.00 | 91 | 1014.2 |
| 20260508110504 | 60 | 227 | 0.0 | 1.7 | 0.00 | 0.00 | 0.00 | 91 | 1014.8 |
| 20260508110304 | 60 | 286 | 0.0 | 0.9 | 0.00 | 0.00 | 0.00 | 91 | 1014.3 |
| 20260508110004 | 60 | 308 | 0.9 | 2.6 | 0.00 | 0.00 | 0.00 | 91 | 1014.9 |
| 20260508105306 | 60 | 322 | 0.9 | 1.7 | 0.00 | 0.00 | 0.00 | 91 | 1013.2 |
| 20260508104304 | 60 | 198 | 0.0 | 0.0 | 0.00 | 0.00 | 0.00 | 91 | 1013.2 |
| 20260508104002 | 60 | 198 | 0.0 | 0.9 | 0.00 | 0.00 | 0.00 | 91 | 1014.0 |
| 20260508103501 | 60 | 198 | 0.0 | 0.9 | 0.00 | 0.00 | 0.00 | 91 | 1013.8 |
| 20260508103304 | 60 | 198 | 0.0 | 0.9 | 0.00 | 0.00 | 0.00 | 91 | 1012.8 |
| 20260508103002 | 59 | 198 | 0.0 | 0.9 | 0.00 | 0.00 | 0.00 | 91 | 1013.5 |
| 20260508102803 | 60 | 198 | 0.0 | 0.9 | 0.00 | 0.00 | 0.00 | 91 | 1012.8 |
| 20260508102500 | 60 | 198 | 0.0 | 0.9 | 0.00 | 0.00 | 0.00 | 91 | 1013.6 |
| 20260508102306 | 60 | 198 | 0.0 | 0.0 | 0.00 | 0.00 | 0.00 | 91 | 1012.7 |
| 20260508102002 | 60 | 198 | 0.9 | 2.6 | 0.00 | 0.00 | 0.00 | 90 | 1013.7 |
| 20260508101500 | 60 | 198 | 0.9 | 2.6 | 0.00 | 0.00 | 0.00 | 91 | 1013.5 |
| 20260508101303 | 60 | 194 | 1.7 | 4.3 | 0.00 | 0.00 | 0.00 | 91 | 1012.6 |
| 20260508101003 | 60 | 165 | 0.9 | 3.5 | 0.00 | 0.00 | 0.00 | 91 | 1013.4 |
| 20260508095959 | 60 | 147 | 0.9 | 1.7 | 0.00 | 0.00 | 0.00 | 90 | 1013.6 |
| 20260508095501 | 60 | 147 | 0.9 | 1.7 | 0.00 | 0.00 | 0.00 | 90 | 1013.4 |
| 20260508095002 | 60 | 211 | 0.0 | 0.0 | 0.00 | 0.00 | 0.00 | 90 | 1013.5 |
| 20260508094502 | 60 | 211 | 0.0 | 0.9 | 0.00 | 0.00 | 0.00 | 90 | 1013.7 |
| 20260508094304 | 60 | 211 | 0.0 | 0.9 | 0.00 | 0.00 | 0.00 | 90 | 1012.9 |
| 20260508094000 | 60 | 211 | 0.0 | 1.7 | 0.00 | 0.00 | 0.00 | 90 | 1013.9 |
| 20260508093803 | 60 | 211 | 0.0 | 0.9 | 0.00 | 0.00 | 0.00 | 90 | 1012.9 |
| 20260508093502 | 60 | 211 | 0.0 | 1.7 | 0.00 | 0.00 | 0.00 | 90 | 1013.7 |
| 20260508093304 | 60 | 211 | 0.0 | 1.7 | 0.00 | 0.00 | 0.00 | 90 | 1012.9 |
| 20260508093002 | 60 | 211 | 0.0 | 0.9 | 0.00 | 0.00 | 0.00 | 90 | 1013.8 |
| 20260508092804 | 60 | 211 | 0.0 | 0.0 | 0.00 | 0.00 | 0.00 | 90 | 1012.9 |
| 20260508092500 | 60 | 211 | 0.0 | 0.9 | 0.00 | 0.00 | 0.00 | 90 | 1013.8 |
| 20260508092000 | 60 | 211 | 0.0 | 0.0 | 0.00 | 0.00 | 0.00 | 90 | 1013.8 |
| 20260508091804 | 60 | 211 | 0.0 | 0.0 | 0.00 | 0.00 | 0.00 | 90 | 1013.0 |
| 20260508091502 | 60 | 211 | 0.0 | 0.9 | 0.00 | 0.00 | 0.00 | 90 | 1013.8 |